This demonstration page uses our WeatherBlox Daily Observations layout. Learn more.

Left ArrowRight Arrow

Hourly Observations for July 12, 2019

Temp ( °F °C ) Dew Point ( °F °C ) Humidity (%) Winds ( mph kmh ) Pressure ( in mb ) Visibility ( mi km ) Precip ( " mm )
12:56 am 00:56 Clear 69 20.6 65 18.3 87 87 S 7 11 29.99 1016 10 16 0.00 0.00
1:56 am 01:56 Clear 67 19.4 64 17.8 91 91 S 6 9 29.99 1016 10 16 0.00 0.00
2:56 am 02:56 Clear 67 19.4 63 17.2 87 87 SSW 6 9 29.98 1015 10 16 0.00 0.00
3:56 am 03:56 Clear 66 18.9 62 16.7 87 87 S 5 7 29.97 1015 10 16 0.00 0.00
4:56 am 04:56 Clear 65 18.3 62 16.7 90 90 S 7 11 29.96 1015 10 16 0.00 0.00
5:56 am 05:56 Clear 66 18.9 62 16.7 87 87 S 9 15 29.95 1014 10 16 0.00 0.00
6:56 am 06:56 Sunny 67 19.4 63 17.2 87 87 S 7 11 29.94 1014 10 16 0.00 0.00
7:56 am 07:56 Sunny 70 21.1 64 17.8 82 82 S 9 15 29.95 1014 10 16 0.00 0.00
8:56 am 08:56 Sunny 74 23.3 64 17.8 71 71 SSW 12 19 29.95 1014 10 16 0.00 0.00
9:56 am 09:56 Sunny 77 25 66 18.9 69 69 S 9 15 29.96 1014 10 16 0.00 0.00
10:56 am 10:56 Sunny 80 26.7 67 19.4 64 64 SSW 10 17 29.94 1014 10 16 0.00 0.00
11:56 am 11:56 Sunny 82 27.8 68 20 63 63 S 17 28 29.93 1014 10 16 0.00 0.00
12:56 pm 12:56 Sunny 85 29.4 71 21.7 63 63 S 14 22 29.92 1013 10 16 0.00 0.00
1:56 pm 13:56 Sunny 85 29.4 72 22.2 65 65 S 12 19 29.92 1013 10 16 0.00 0.00
2:56 pm 14:56 Sunny 87 30.6 72 22.2 61 61 S 14 22 29.91 1013 10 16 0.00 0.00
3:56 pm 15:56 Sunny 88 31.1 73 22.8 61 61 S 16 26 29.89 1012 10 16 0.00 0.00
4:56 pm 16:56 Sunny 88 31.1 73 22.8 61 61 S 17 28 29.88 1012 10 16 0.00 0.00
5:56 pm 17:56 Sunny 88 31.1 72 22.2 59 59 S 13 20 29.88 1012 10 16 0.00 0.00
6:56 pm 18:56 Sunny 87 30.6 72 22.2 61 61 SSE 10 17 29.89 1012 10 16 0.00 0.00
7:56 pm 19:56 Sunny 84 28.9 73 22.8 70 70 SE 8 13 29.91 1013 10 16 0.00 0.00
8:56 pm 20:56 Sunny 79 26.1 71 21.7 77 77 SE 9 15 29.90 1012 10 16 0.00 0.00
9:56 pm 21:56 Clear 77 25 69 20.6 77 77 SE 12 19 29.90 1013 10 16 0.00 0.00
10:56 pm 22:56 Clear 76 24.4 68 20 77 77 SSE 14 22 29.92 1013 10 16 0.00 0.00
11:56 pm 23:56 Clear 75 23.9 67 19.4 76 76 SSE 10 17 29.93 1014 10 16 0.00 0.00

Powered by AerisWeather